Location: Lake Crest
(37.6062°N, 88.9176°W)
Time: 08:28:05
(UTC+00:00)

Cosmos 2279 Rocket - Pass Details

Date: 15 December 2019
Orbit: 964 x 979 km, 82.9° (Epoch: 27 January)

Event Time Altitude Azimuth Distance (km) Brightness Sun altitude
Rises 11:45:05 0° 207° (SSW) 3,641 6.9 -15.0°
Reaches altitude 10° 11:47:45 10° 215° (SW) 2,700 6.2 -14.5°
Maximum altitude 11:53:28 39° 283° (WNW) 1,426 4.4 -13.4°
Drops below altitude 10° 11:59:15 10° 351° (N) 2,724 6.1 -12.3°
Sets 12:01:58 0° 359° (N) 3,678 6.8 -11.8°
